Location: Pella
(41.4080°N, 92.9160°W)
Time: 12:14:49
(UTC-05:00)

Iridium 91 - Visible Passes

Search period start: 24 June 2017 00:00
Search period end: 04 July 2017 00:00
Orbit: 776 x 779 km, 86.4° (Epoch: 23 June)

Date Brightness Start Highest point End Pass type
(mag) Time Alt. Az. Time Alt. Az. Time Alt. Az.
24 Jun 5.9 01:44:32 47° ESE 01:45:21 52° E 01:50:25 10° NNE visible
24 Jun 7.2 03:25:00 17° W 03:26:24 18° WNW 03:29:57 10° NNW visible
25 Jun 6.8 01:11:09 27° E 01:12:00 29° E 01:16:25 10° NNE visible
25 Jun 6.5 02:51:37 30° WSW 02:52:36 32° W 02:57:16 10° NNW visible
26 Jun 7.5 00:37:45 15° E 00:38:47 16° ENE 00:41:51 10° NE visible
26 Jun 5.6 02:18:14 54° WSW 02:18:56 59° W 02:24:06 10° N visible
27 Jun 5.4 01:44:50 67° SE 01:45:24 76° E 01:50:38 10° N visible
27 Jun 7.6 03:25:18 11° W 03:26:44 13° WNW 03:28:57 10° NW visible
28 Jun 6.2 01:11:25 39° ESE 01:11:59 41° E 01:16:51 10° NNE visible
28 Jun 7.0 02:51:54 22° W 02:52:51 23° WNW 02:56:57 10° NNW visible
29 Jun 7.1 00:38:01 22° E 00:38:42 23° E 00:42:41 10° NNE visible
29 Jun 6.2 02:18:29 39° W 02:19:06 41° W 02:24:02 10° NNW visible
30 Jun 7.7 00:04:36 12° E 00:05:31 12° ENE 00:07:35 10° NE visible
30 Jun 5.4 01:45:04 70° SW 01:45:30 76° W 01:50:44 10° N visible
01 Jul 5.7 01:11:39 58° ESE 01:12:00 59° E 01:17:08 10° N visible
01 Jul 7.4 02:52:07 15° W 02:53:09 16° WNW 02:56:20 10° NW visible
02 Jul 6.6 00:38:13 32° E 00:38:38 32° E 00:43:14 10° NNE visible
02 Jul 6.7 02:18:41 28° W 02:19:20 29° W 02:23:50 10° NNW visible
03 Jul 7.3 00:04:47 18° E 00:05:24 18° E 00:08:50 10° NE visible
03 Jul 5.8 01:45:15 51° W 01:45:38 52° W 01:50:44 10° N visible
